Location: Fornova de Taro
(44.7000°N, 10.1000°E)
Time: 23:16:23
(UTC+00:00)

USA 32 - Pass Details

Date: 26 May 2022
Orbit: 775 x 784 km, 85.0° (Epoch: 25 June)

Event Time Altitude Azimuth Distance (km) Brightness Sun altitude
Exits shadow 00:34:56 50° 211° (SSW) 993 4.1 -21.8°
Maximum altitude 00:36:14 71° 276° (W) 829 4.0 -21.7°
Drops below altitude 10° 00:41:30 10° 1° (N) 2,348 7.5 -21.4°
Sets 00:43:53 0° 4° (N) 3,280 8.6 -21.3°
